GEESAT 2-07

Satellite information

Favourite Embed

Satellite Type and Status

PAYLOADIN ORBIT

Key statistics

Satellite GEESAT 2-07 at a glance.

Uptime

624

Days in orbit

Revolutions

≈ 14.9

Per day

Orbit

LEO

Low Earth Orbit

Inclination

50.0

Latest

Satellite identification and parameters

Extended collection of information and parameters for GEESAT 2-07.

Object identification

Identified? True

Debris? False

Object name: GEESAT 2-07

International designator: 2024-023G

Object number (NORAD): 58911

Object ID (CCSDS): 58911

Country: PEOPLES REPUBLIC OF CHINA (PRC)

Current information (Y/N): Y

RCS size: MEDIUM

Orbital parameters

Period: 96.657 minutes

Inclination: 50.0056 deg

SMA: 6976.665 km

Apoapsis: 605.264 km

Periapsis: 591.797 km

RAAN: 37.058 deg

Eccentricy: 0.00096515

Argument of periapsis: 199.4673 deg

Mean anomaly: 160.5901 deg

Mean motion: 14.89810152 rev/day

Mean motion (dot): 0.00005423 rev/day2

B* drag term: 0.00058270746 1/REarth

Two-line elements (TLE)

Creation date: Oct. 18, 2025, 2:17 a.m.

Reference frame: TEME

Reference center: EARTH

Epoch: Oct. 17, 2025, 11:55 p.m. UTC

TLE line 0: 0 GEESAT 2-07

TLE line 1: 1 58911U 24023G 25290.99698203 .00005423 00000-0 58271-3 0 9999

TLE line 2: 2 58911 50.0056 37.0580 0009651 199.4673 160.5901 14.89810152 92951

Live tracking on map

Real-time ground track for satellite GEESAT 2-07.

In-orbit conjunctions

There are no conjunctions computed for GEESAT 2-07, at the moment. Check back to stay up to date, as we update our databases every day.

Go to all conjunctions

Associated space launch

11 LEO communications satellites for Chinese car manufacturer Geely Automotive for testing autonomous driving/inter-vehicle communication services. They also carry payloads for ocean observation.

GEESAT 2-07 was lifted into orbit during the mission ‘Long March 2C | Geely Constellation Group 02’, on board a Long March 2 space rocket.

The launch took place on Feb. 2, 2024, 11:37 p.m. from Launch Complex 3 (LC-3/LA-1).

For more information about the launch, click the button.

Launch to space Long March 2C | Geely Constellation Group 02
Long March 2C | Geely Constellation Group 02

Agency: N/A

Status: Launch Successful

Launch date: Feb. 2, 2024, 11:37 p.m. UTC

Rocket: Long March 2

Launch pad: Launch Complex 3 (LC-3/LA-1)

Location: Xichang Satellite Launch Center, People's Republic of China

...

Latest news about this satellite

News about space launch
China launches 20 satellites on separate inland and sea rocket launches

A pair of Chinese rockets launched 11 mobility services satellites for an automaker and nine further, diverse satellites into orbit late Friday.


Newsletter sign-up

Weekly statistics, charts and insights to help you stay on top of the space industry.